STARLINK-4522 (53388 NORAD) Tracking and Keplerian Element Data

This shows tracking and keplerian element data for the satellite.

Feedback or suggestion? Click here.




ElementValue
Catalog53388
NameSTARLINK-4522
Epoch Orbit130
Epoch Day269.91667824
Epoch Year2022
RAAN19.4693
Inclination53.2166
Eccentricity0.0001973
Argument of Perigee40.0772
Mean Anonmoly31.6647
Mean Motion15.0887139
Decay Rate-0.00058217
L11 53388U 22097A 22269.91667824 -.00058217 00000+0 -36663-2 0 9991
L22 53388 53.2166 19.4693 0001973 40.0772 31.6647 15.08871390 1307

Live tracking and technical data element details for STARLINK-4522 (NORAD 53388). STARLINK-4522 can be tracked NOW for your location showing map with azimuth and elevation plus other details from your city location.

Track the satellite on the map from your city or location and see movement details for azimuth, elevation, latitude, longitude, range, height, and movement on the map or in text.







IsCatalogInMostPopularTable: catalog: 53388, numindb: 3
Update: records affected: 1



GetName: 53388 STARLINK-4522

Hit Count: updated at: Fri, 30 Sep 2022 03:50:40 GMT